QPF
0.00 0.00 0.00 0.00 0.00 0.00 0.01 0.01 0.01 0.01 0.01 0.01 0.01 0.01 0.01 0.01 0.00 0.00 0.01 0.01 0.01 0.01 0.01 0.01 0.01 0.02 0.01 0.01 0.01 0.01 0.01 0.01 0.01 0.01 0.01 0.02 0.01 0.01 0.01 0.01 0.00 0.01 0.01
0.00 0.00 0.00 0.00 0.00 0.00 0.01 0.01 0.01 0.01 0.01 0.01 0.01 0.01 0.01 0.00 0.00 0.00 0.01 0.01 0.01 0.00 0.01 0.01 0.01 0.01 0.01 0.01 0.01 0.01 0.01 0.01 0.01 0.01 0.01 0.01 0.01 0.01 0.01 0.01 0.01 0.01 0.01
0.00 0.00 0.00 0.00 0.00 0.00 0.01 0.01 0.01 0.01 0.01 0.01 0.01 0.01 0.01 0.00 0.00 0.00 0.00 0.01 0.00 0.01 0.01 0.01 0.01 0.01 0.01 0.00 0.01 0.00 0.01 0.00 0.00 0.00 0.00 0.00 0.01 0.01 0.01 0.01 0.02 0.01 0.00
0.00 0.00 0.00 0.00 0.00 0.00 0.01 0.01 0.01 0.01 0.01 0.01 0.01 0.01 0.01 0.00 0.00 0.00 0.00 0.01 0.01 0.01 0.01 0.01 0.00 0.00 0.00 0.00 0.01 0.01 0.01 0.01 0.00 0.00 0.00 0.00 0.01 0.02 0.01 0.01 0.01 0.01 0.00
0.00 0.00 0.00 0.00 0.00 0.00 0.01 0.01 0.01 0.01 0.01 0.01 0.02 0.02 0.02 0.01 0.01 0.01 0.01 0.00 0.01 0.00 0.00 0.00 0.00 0.00 0.00 0.00 0.00 0.01 0.01 0.01 0.00 0.00 0.00 0.00 0.01 0.01 0.01 0.01 0.01 0.01 0.01
0.00 0.00 0.00 0.00 0.00 0.00 0.01 0.01 0.01 0.01 0.01 0.01 0.02 0.03 0.03 0.02 0.01 0.01 0.01 0.00 0.01 0.00 0.00 0.00 0.00 0.00 0.00 0.00 0.00 0.00 0.00 0.00 0.00 0.00 0.00 0.00 0.01 0.01 0.01 0.01 0.00 0.00 0.01
0.00 0.00 0.00 0.00 0.00 0.00 0.01 0.01 0.01 0.01 0.00 0.01 0.01 0.02 0.03 0.02 0.02 0.01 0.01 0.00 0.00 0.00 0.00 0.00 0.00 0.00 0.00 0.00 0.00 0.00 0.00 0.00 0.00 0.00 0.00 0.00 0.00 0.01 0.00 0.00 0.00 0.00 0.00
0.00 0.00 0.00 0.00 0.00 0.01 0.01 0.01 0.01 0.01 0.00 0.01 0.01 0.02 0.02 0.02 0.02 0.02 0.01 0.01 0.01 0.00 0.00 0.00 0.00 0.00 0.00 0.00 0.00 0.00 0.00 0.00 0.00 0.00 0.00 0.00 0.00 0.00 0.00 0.00 0.00 0.00 0.00
0.00 0.00 0.00 0.00 0.00 0.01 0.01 0.01 0.01 0.01 0.01 0.01 0.01 0.01 0.02 0.03 0.03 0.03 0.03 0.02 0.01 0.00 0.00 0.00 0.00 0.00 0.00 0.00 0.00 0.00 0.00 0.00 0.00 0.00 0.00 0.00 0.00 0.00 0.00 0.00 0.00 0.00 0.00
0.00 0.00 0.00 0.00 0.00 0.01 0.01 0.01 0.01 0.01 0.01 0.01 0.01 0.01 0.02 0.03 0.04 0.04 0.03 0.02 0.01 0.00 0.00 0.00 0.00 0.00 0.00 0.00 0.00 0.00 0.00 0.00 0.00 0.00 0.00 0.00 0.00 0.00 0.00 0.00 0.00 0.00 0.00
0.00 0.00 0.00 0.00 0.00 0.00 0.00 0.01 0.01 0.01 0.01 0.01 0.01 0.01 0.02 0.02 0.03 0.03 0.03 0.03 0.02 0.00 0.00 0.00 0.00 0.00 0.00 0.00 0.00 0.00 0.00 0.00 0.00 0.00 0.00 0.00 0.00 0.00 0.00 0.00 0.00 0.00 0.00
0.00 0.01 0.01 0.01 0.01 0.01 0.01 0.01 0.01 0.01 0.01 0.01 0.01 0.01 0.01 0.02 0.03 0.03 0.03 0.03 0.02 0.01 0.00 0.00 0.00 0.00 0.00 0.00 0.00 0.00 0.00 0.00 0.00 0.00 0.00 0.00 0.00 0.00 0.00 0.00 0.00 0.00 0.00
0.00 0.00 0.01 0.01 0.01 0.01 0.01 0.01 0.01 0.01 0.01 0.01 0.01 0.01 0.01 0.03 0.04 0.04 0.04 0.04 0.04 0.02 0.00 0.00 0.00 0.00 0.00 0.00 0.00 0.00 0.00 0.00 0.00 0.00 0.00 0.00 0.00 0.00 0.00 0.00 0.00 0.00 0.00
0.01 0.01 0.01 0.01 0.01 0.01 0.01 0.01 0.01 0.01 0.01 0.01 0.01 0.01 0.02 0.03 0.04 0.04 0.04 0.04 0.03 0.02 0.01 0.00 0.00 0.00 0.00 0.00 0.00 0.00 0.00 0.00 0.00 0.00 0.00 0.00 0.00 0.00 0.00 0.00 0.00 0.00 0.00
0.01 0.01 0.01 0.01 0.01 0.01 0.01 0.01 0.01 0.01 0.01 0.01 0.01 0.02 0.03 0.03 0.03 0.04 0.04 0.04 0.04 0.02 0.00 0.00 0.00 0.00 0.00 0.00 0.00 0.00 0.00 0.00 0.00 0.00 0.00 0.00 0.00 0.00 0.00 0.00 0.00 0.00 0.00
0.01 0.01 0.01 0.01 0.01 0.01 0.01 0.01 0.00 0.00 0.01 0.01 0.01 0.02 0.04 0.04 0.03 0.03 0.03 0.03 0.03 0.02 0.01 0.00 0.00 0.00 0.00 0.00 0.00 0.00 0.00 0.00 0.00 0.00 0.00 0.00 0.00 0.00 0.00 0.00 0.00 0.00 0.00
0.01 0.01 0.01 0.02 0.02 0.02 0.02 0.01 0.01 0.00 0.00 0.01 0.01 0.02 0.04 0.06 0.05 0.03 0.03 0.03 0.03 0.02 0.01 0.00 0.00 0.00 0.00 0.00 0.00 0.00 0.00 0.00 0.00 0.00 0.00 0.00 0.00 0.00 0.00 0.00 0.00 0.00 0.00
0.01 0.01 0.02 0.02 0.02 0.03 0.03 0.03 0.02 0.01 0.00 0.00 0.01 0.01 0.04 0.07 0.07 0.06 0.04 0.02 0.02 0.02 0.01 0.01 0.00 0.00 0.00 0.00 0.00 0.00 0.00 0.00 0.00 0.00 0.00 0.00 0.00 0.00 0.00 0.00 0.00 0.00 0.00
0.01 0.01 0.01 0.02 0.02 0.03 0.03 0.03 0.03 0.03 0.01 0.00 0.00 0.01 0.03 0.08 0.09 0.08 0.06 0.04 0.02 0.02 0.01 0.01 0.00 0.00 0.00 0.00 0.00 0.00 0.00 0.00 0.00 0.00 0.00 0.00 0.00 0.00 0.00 0.00 0.00 0.00 0.00
0.01 0.01 0.01 0.02 0.03 0.03 0.03 0.04 0.05 0.04 0.03 0.01 0.00 0.00 0.02 0.06 0.09 0.09 0.07 0.06 0.04 0.02 0.01 0.01 0.01 0.01 0.00 0.01 0.01 0.01 0.00 0.00 0.00 0.00 0.00 0.00 0.00 0.00 0.00 0.00 0.00 0.00 0.00
0.01 0.02 0.02 0.02 0.02 0.03 0.04 0.04 0.04 0.04 0.03 0.02 0.01 0.01 0.01 0.04 0.07 0.08 0.07 0.07 0.05 0.03 0.02 0.02 0.01 0.01 0.01 0.01 0.01 0.00 0.00 0.00 0.00 0.00 0.00 0.00 0.00 0.00 0.00 0.00 0.00 0.00 0.00
0.00 0.01 0.01 0.01 0.01 0.02 0.03 0.04 0.04 0.04 0.04 0.03 0.02 0.01 0.01 0.03 0.05 0.06 0.06 0.07 0.07 0.04 0.04 0.03 0.02 0.02 0.02 0.01 0.02 0.01 0.00 0.00 0.00 0.00 0.00 0.00 0.00 0.00 0.00 0.00 0.00 0.00 0.00
0.01 0.01 0.01 0.01 0.01 0.01 0.02 0.04 0.05 0.05 0.05 0.05 0.04 0.02 0.02 0.03 0.04 0.05 0.05 0.06 0.06 0.05 0.04 0.03 0.02 0.02 0.02 0.01 0.01 0.02 0.01 0.00 0.00 0.00 0.00 0.00 0.00 0.00 0.00 0.00 0.00 0.00 0.00
0.00 0.00 0.01 0.01 0.01 0.01 0.02 0.04 0.04 0.05 0.05 0.05 0.04 0.03 0.03 0.03 0.03 0.04 0.04 0.05 0.06 0.05 0.04 0.03 0.03 0.02 0.02 0.02 0.01 0.01 0.01 0.01 0.01 0.00 0.00 0.00 0.00 0.00 0.00 0.00 0.00 0.00 0.00
0.00 0.00 0.00 0.00 0.01 0.01 0.02 0.04 0.05 0.05 0.05 0.05 0.05 0.05 0.04 0.04 0.02 0.03 0.04 0.05 0.06 0.05 0.05 0.04 0.03 0.03 0.02 0.02 0.02 0.02 0.01 0.01 0.01 0.01 0.00 0.00 0.00 0.00 0.00 0.00 0.00 0.00 0.00
0.01 0.01 0.00 0.00 0.00 0.01 0.03 0.04 0.05 0.06 0.06 0.08 0.07 0.06 0.04 0.05 0.03 0.02 0.03 0.04 0.05 0.05 0.05 0.04 0.04 0.03 0.03 0.02 0.02 0.02 0.02 0.01 0.01 0.01 0.01 0.01 0.01 0.01 0.01 0.01 0.00 0.00 0.00
MSLP
1011.17 1010.96 1010.88 1010.96 1011.16 1011.44 1011.74 1011.99 1012.17 1012.25 1012.27 1012.25 1012.24 1012.27 1012.35 1012.48 1012.63 1012.78 1012.89 1012.95 1012.98 1012.98 1012.98 1013.02 1013.09 1013.21 1013.34 1013.47 1013.56 1013.60 1013.58 1013.51 1013.40 1013.29 1013.18 1013.10 1013.05 1013.02 1012.99 1012.97 1012.93 1012.87 1012.81
1010.62 1010.50 1010.51 1010.68 1010.96 1011.29 1011.63 1011.91 1012.10 1012.21 1012.24 1012.25 1012.27 1012.34 1012.47 1012.63 1012.81 1012.98 1013.10 1013.16 1013.19 1013.19 1013.20 1013.24 1013.31 1013.41 1013.53 1013.64 1013.70 1013.71 1013.67 1013.58 1013.47 1013.36 1013.27 1013.21 1013.17 1013.16 1013.15 1013.13 1013.11 1013.08 1013.03
1009.93 1009.90 1010.01 1010.27 1010.63 1011.04 1011.43 1011.75 1011.97 1012.11 1012.17 1012.22 1012.29 1012.40 1012.56 1012.75 1012.95 1013.12 1013.25 1013.32 1013.34 1013.35 1013.36 1013.40 1013.47 1013.57 1013.67 1013.75 1013.79 1013.79 1013.73 1013.64 1013.54 1013.45 1013.39 1013.35 1013.33 1013.34 1013.34 1013.34 1013.33 1013.31 1013.29
1009.22 1009.27 1009.47 1009.81 1010.25 1010.73 1011.16 1011.52 1011.77 1011.94 1012.04 1012.12 1012.23 1012.37 1012.56 1012.77 1012.98 1013.16 1013.28 1013.35 1013.38 1013.40 1013.42 1013.47 1013.55 1013.65 1013.75 1013.82 1013.85 1013.84 1013.79 1013.72 1013.64 1013.57 1013.53 1013.52 1013.52 1013.53 1013.55 1013.55 1013.55 1013.54 1013.54
1008.61 1008.73 1009.00 1009.41 1009.90 1010.41 1010.87 1011.24 1011.51 1011.69 1011.82 1011.93 1012.06 1012.23 1012.44 1012.66 1012.87 1013.05 1013.17 1013.25 1013.29 1013.33 1013.38 1013.45 1013.55 1013.67 1013.77 1013.85 1013.89 1013.89 1013.85 1013.80 1013.75 1013.71 1013.70 1013.70 1013.71 1013.72 1013.73 1013.72 1013.72 1013.72 1013.73
1008.19 1008.36 1008.68 1009.12 1009.63 1010.14 1010.59 1010.95 1011.21 1011.39 1011.52 1011.64 1011.79 1011.98 1012.20 1012.43 1012.64 1012.81 1012.94 1013.03 1013.09 1013.15 1013.23 1013.34 1013.47 1013.61 1013.75 1013.85 1013.91 1013.93 1013.92 1013.89 1013.87 1013.85 1013.85 1013.86 1013.87 1013.87 1013.85 1013.83 1013.82 1013.82 1013.85
1008.01 1008.20 1008.53 1008.98 1009.47 1009.95 1010.36 1010.67 1010.90 1011.05 1011.18 1011.31 1011.47 1011.67 1011.89 1012.13 1012.34 1012.51 1012.64 1012.74 1012.82 1012.91 1013.02 1013.17 1013.34 1013.52 1013.68 1013.81 1013.90 1013.95 1013.97 1013.97 1013.97 1013.97 1013.98 1013.98 1013.97 1013.95 1013.91 1013.86 1013.84 1013.84 1013.88
1008.01 1008.21 1008.54 1008.96 1009.40 1009.82 1010.17 1010.42 1010.60 1010.73 1010.84 1010.97 1011.14 1011.35 1011.59 1011.83 1012.04 1012.21 1012.34 1012.44 1012.53 1012.65 1012.79 1012.97 1013.17 1013.38 1013.58 1013.74 1013.86 1013.93 1013.98 1014.01 1014.03 1014.05 1014.05 1014.04 1014.01 1013.96 1013.89 1013.82 1013.78 1013.78 1013.83
1008.10 1008.29 1008.60 1008.97 1009.36 1009.71 1009.99 1010.18 1010.32 1010.42 1010.52 1010.67 1010.86 1011.09 1011.34 1011.59 1011.80 1011.96 1012.09 1012.18 1012.28 1012.40 1012.56 1012.76 1012.99 1013.22 1013.44 1013.63 1013.77 1013.87 1013.94 1013.99 1014.02 1014.04 1014.04 1014.02 1013.97 1013.89 1013.81 1013.72 1013.67 1013.67 1013.73
1008.14 1008.32 1008.59 1008.92 1009.25 1009.54 1009.76 1009.91 1010.02 1010.11 1010.23 1010.40 1010.62 1010.89 1011.16 1011.42 1011.63 1011.79 1011.90 1011.98 1012.07 1012.19 1012.34 1012.55 1012.78 1013.03 1013.26 1013.46 1013.62 1013.73 1013.82 1013.88 1013.92 1013.94 1013.94 1013.91 1013.85 1013.76 1013.66 1013.57 1013.52 1013.52 1013.59
1008.01 1008.17 1008.41 1008.70 1008.99 1009.23 1009.41 1009.55 1009.65 1009.77 1009.93 1010.14 1010.41 1010.71 1011.01 1011.28 1011.50 1011.65 1011.74 1011.81 1011.88 1011.98 1012.13 1012.32 1012.55 1012.79 1013.02 1013.22 1013.39 1013.51 1013.60 1013.66 1013.71 1013.73 1013.73 1013.70 1013.64 1013.56 1013.46 1013.37 1013.33 1013.34 1013.42
1007.67 1007.80 1008.01 1008.27 1008.52 1008.73 1008.90 1009.04 1009.17 1009.33 1009.54 1009.81 1010.14 1010.48 1010.82 1011.11 1011.33 1011.48 1011.57 1011.62 1011.68 1011.76 1011.89 1012.07 1012.28 1012.51 1012.73 1012.92 1013.07 1013.19 1013.28 1013.34 1013.39 1013.41 1013.41 1013.39 1013.34 1013.27 1013.19 1013.13 1013.09 1013.11 1013.19
1007.11 1007.21 1007.39 1007.61 1007.83 1008.04 1008.21 1008.38 1008.55 1008.77 1009.04 1009.37 1009.74 1010.13 1010.50 1010.81 1011.05 1011.20 1011.30 1011.35 1011.41 1011.49 1011.61 1011.77 1011.97 1012.17 1012.38 1012.55 1012.70 1012.80 1012.88 1012.93 1012.96 1012.98 1012.99 1012.98 1012.94 1012.90 1012.85 1012.80 1012.79 1012.82 1012.90
1006.43 1006.48 1006.61 1006.79 1006.99 1007.18 1007.37 1007.57 1007.79 1008.06 1008.39 1008.77 1009.18 1009.60 1009.99 1010.32 1010.58 1010.76 1010.88 1010.96 1011.04 1011.13 1011.26 1011.42 1011.61 1011.81 1011.99 1012.15 1012.27 1012.36 1012.41 1012.44 1012.46 1012.47 1012.47 1012.46 1012.45 1012.43 1012.40 1012.39 1012.40 1012.44 1012.52
1005.71 1005.70 1005.78 1005.91 1006.08 1006.26 1006.46 1006.69 1006.94 1007.25 1007.61 1008.01 1008.44 1008.87 1009.27 1009.62 1009.90 1010.12 1010.29 1010.42 1010.55 1010.69 1010.85 1011.04 1011.24 1011.43 1011.60 1011.73 1011.83 1011.89 1011.91 1011.92 1011.91 1011.90 1011.88 1011.87 1011.87 1011.86 1011.87 1011.88 1011.92 1011.97 1012.05
1005.09 1005.01 1005.01 1005.09 1005.21 1005.37 1005.57 1005.81 1006.09 1006.41 1006.77 1007.17 1007.58 1007.99 1008.38 1008.73 1009.05 1009.31 1009.54 1009.75 1009.96 1010.18 1010.40 1010.63 1010.85 1011.04 1011.21 1011.33 1011.40 1011.42 1011.42 1011.38 1011.34 1011.30 1011.26 1011.23 1011.22 1011.22 1011.24 1011.28 1011.33 1011.41 1011.49
1004.62 1004.47 1004.40 1004.41 1004.49 1004.62 1004.81 1005.05 1005.32 1005.62 1005.96 1006.31 1006.67 1007.04 1007.39 1007.74 1008.07 1008.38 1008.69 1008.99 1009.30 1009.61 1009.91 1010.19 1010.44 1010.66 1010.82 1010.93 1010.98 1010.97 1010.93 1010.87 1010.78 1010.70 1010.62 1010.57 1010.54 1010.53 1010.56 1010.61 1010.68 1010.76 1010.85
1004.35 1004.12 1003.98 1003.93 1003.96 1004.07 1004.25 1004.46 1004.72 1004.98 1005.26 1005.54 1005.82 1006.11 1006.40 1006.71 1007.04 1007.40 1007.78 1008.18 1008.59 1008.99 1009.37 1009.71 1010.01 1010.25 1010.41 1010.51 1010.55 1010.53 1010.46 1010.37 1010.25 1010.12 1010.00 1009.91 1009.84 1009.82 1009.83 1009.88 1009.96 1010.06 1010.17
1004.23 1003.95 1003.76 1003.65 1003.65 1003.74 1003.90 1004.10 1004.32 1004.54 1004.74 1004.92 1005.09 1005.27 1005.48 1005.73 1006.04 1006.42 1006.86 1007.33 1007.83 1008.31 1008.77 1009.17 1009.50 1009.76 1009.94 1010.04 1010.08 1010.05 1009.97 1009.86 1009.71 1009.55 1009.40 1009.26 1009.16 1009.10 1009.09 1009.14 1009.22 1009.33 1009.45
1004.24 1003.93 1003.69 1003.56 1003.53 1003.61 1003.75 1003.94 1004.12 1004.28 1004.39 1004.45 1004.50 1004.56 1004.65 1004.83 1005.10 1005.47 1005.93 1006.45 1007.01 1007.56 1008.06 1008.51 1008.87 1009.15 1009.34 1009.46 1009.50 1009.49 1009.42 1009.31 1009.16 1008.98 1008.79 1008.62 1008.48 1008.38 1008.35 1008.38 1008.46 1008.58 1008.73
1004.31 1003.99 1003.73 1003.58 1003.54 1003.61 1003.75 1003.92 1004.06 1004.15 1004.17 1004.12 1004.04 1003.96 1003.94 1004.01 1004.21 1004.54 1005.00 1005.53 1006.11 1006.69 1007.22 1007.68 1008.06 1008.35 1008.57 1008.70 1008.78 1008.80 1008.76 1008.67 1008.54 1008.36 1008.17 1007.97 1007.80 1007.67 1007.61 1007.62 1007.69 1007.82 1007.97
1004.42 1004.09 1003.83 1003.66 1003.61 1003.67 1003.80 1003.95 1004.06 1004.09 1004.02 1003.86 1003.65 1003.44 1003.29 1003.25 1003.37 1003.64 1004.05 1004.56 1005.13 1005.69 1006.22 1006.68 1007.05 1007.35 1007.58 1007.75 1007.86 1007.93 1007.95 1007.91 1007.82 1007.67 1007.49 1007.28 1007.09 1006.94 1006.85 1006.84 1006.90 1007.03 1007.20
1004.54 1004.21 1003.93 1003.75 1003.68 1003.73 1003.83 1003.95 1004.02 1003.99 1003.84 1003.58 1003.26 1002.93 1002.67 1002.53 1002.55 1002.74 1003.08 1003.54 1004.06 1004.58 1005.07 1005.50 1005.86 1006.16 1006.40 1006.59 1006.76 1006.89 1006.98 1007.01 1006.98 1006.88 1006.73 1006.54 1006.35 1006.19 1006.08 1006.05 1006.10 1006.22 1006.38
1004.66 1004.32 1004.01 1003.80 1003.69 1003.70 1003.77 1003.84 1003.86 1003.77 1003.56 1003.22 1002.82 1002.40 1002.05 1001.81 1001.75 1001.85 1002.12 1002.50 1002.94 1003.40 1003.83 1004.21 1004.54 1004.82 1005.06 1005.29 1005.50 1005.70 1005.86 1005.97 1006.02 1005.98 1005.88 1005.73 1005.55 1005.39 1005.28 1005.24 1005.27 1005.38 1005.54
1004.77 1004.40 1004.05 1003.77 1003.61 1003.56 1003.57 1003.59 1003.55 1003.42 1003.15 1002.76 1002.30 1001.83 1001.42 1001.12 1000.98 1001.01 1001.19 1001.49 1001.85 1002.23 1002.58 1002.90 1003.18 1003.43 1003.67 1003.92 1004.17 1004.42 1004.65 1004.84 1004.96 1004.99 1004.95 1004.85 1004.71 1004.57 1004.46 1004.41 1004.44 1004.54 1004.69
1004.85 1004.42 1004.01 1003.66 1003.42 1003.28 1003.22 1003.17 1003.09 1002.91 1002.62 1002.21 1001.73 1001.24 1000.80 1000.46 1000.28 1000.24 1000.36 1000.57 1000.85 1001.13 1001.41 1001.66 1001.88 1002.09 1002.31 1002.56 1002.83 1003.12 1003.40 1003.65 1003.83 1003.94 1003.96 1003.91 1003.82 1003.71 1003.63 1003.59 1003.62 1003.70 1003.84
Thickness
5775 5776 5776 5774 5771 5770 5768 5766 5764 5762 5760 5759 5757 5756 5754 5753 5751 5750 5748 5747 5746 5744 5743 5742 5740 5738 5736 5735 5733 5732 5730 5728 5727 5726 5725 5723 5721 5719 5717 5715 5714 5712 5711
5781 5777 5775 5772 5770 5768 5766 5765 5763 5761 5758 5757 5755 5754 5752 5751 5749 5747 5746 5744 5743 5741 5740 5739 5737 5735 5733 5732 5730 5729 5727 5725 5723 5722 5720 5719 5717 5716 5714 5712 5710 5708 5706
5778 5776 5773 5771 5768 5766 5764 5763 5761 5759 5757 5755 5753 5751 5750 5748 5747 5745 5743 5742 5740 5738 5737 5736 5734 5732 5730 5728 5727 5725 5723 5721 5720 5718 5716 5715 5713 5712 5710 5708 5706 5704 5702
5777 5774 5771 5769 5766 5764 5762 5760 5758 5757 5755 5753 5751 5749 5748 5746 5744 5742 5741 5739 5737 5736 5734 5732 5730 5729 5727 5725 5723 5722 5720 5718 5716 5714 5712 5711 5709 5708 5706 5704 5702 5700 5698
5773 5771 5769 5766 5764 5762 5760 5758 5756 5754 5753 5751 5749 5747 5746 5744 5742 5740 5738 5736 5734 5733 5731 5729 5727 5725 5723 5722 5720 5718 5717 5715 5712 5710 5709 5707 5705 5704 5702 5700 5697 5695 5693
5769 5768 5766 5764 5762 5760 5758 5756 5754 5752 5750 5749 5747 5745 5743 5742 5740 5738 5736 5733 5731 5729 5728 5726 5724 5722 5720 5718 5716 5715 5713 5711 5709 5707 5705 5703 5702 5700 5698 5695 5693 5691 5689
5766 5764 5763 5761 5759 5757 5755 5753 5751 5750 5748 5746 5744 5743 5741 5739 5737 5735 5733 5731 5728 5726 5724 5722 5721 5719 5717 5715 5713 5711 5709 5707 5705 5703 5701 5699 5698 5696 5694 5691 5689 5687 5685
5763 5761 5759 5757 5756 5754 5752 5750 5748 5747 5745 5743 5742 5740 5738 5736 5734 5732 5730 5728 5726 5724 5721 5719 5717 5715 5713 5711 5709 5707 5705 5703 5701 5699 5697 5695 5694 5692 5690 5688 5685 5683 5680
5757 5756 5754 5753 5752 5750 5748 5747 5745 5743 5742 5740 5738 5737 5735 5733 5731 5728 5726 5725 5722 5720 5718 5716 5714 5712 5710 5708 5706 5704 5702 5699 5697 5695 5693 5692 5690 5689 5686 5684 5681 5679 5676
5750 5750 5749 5749 5748 5746 5745 5743 5741 5740 5738 5736 5734 5733 5731 5729 5727 5725 5723 5721 5719 5717 5715 5713 5710 5708 5706 5704 5702 5700 5698 5695 5693 5691 5689 5688 5686 5685 5683 5680 5677 5675 5672
5742 5743 5744 5743 5743 5742 5740 5739 5737 5735 5734 5732 5730 5728 5727 5725 5723 5721 5719 5717 5715 5713 5711 5709 5707 5705 5702 5700 5698 5696 5694 5692 5689 5687 5686 5684 5683 5681 5679 5676 5673 5671 5668
5734 5736 5738 5738 5738 5736 5735 5733 5732 5731 5729 5728 5726 5724 5722 5720 5719 5717 5715 5713 5711 5710 5707 5705 5703 5701 5698 5696 5694 5692 5690 5688 5685 5683 5682 5681 5679 5677 5675 5672 5669 5667 5664
5731 5731 5733 5733 5733 5731 5730 5729 5727 5725 5724 5722 5721 5719 5717 5715 5713 5712 5710 5709 5707 5705 5703 5701 5699 5696 5694 5692 5690 5688 5686 5684 5682 5680 5678 5677 5675 5674 5671 5669 5666 5663 5660
5725 5726 5728 5728 5727 5727 5726 5725 5723 5721 5719 5717 5716 5714 5712 5710 5708 5707 5705 5704 5702 5701 5699 5697 5694 5692 5689 5688 5686 5684 5682 5680 5678 5677 5675 5673 5672 5670 5668 5665 5662 5659 5656
5721 5722 5723 5723 5723 5722 5720 5719 5718 5716 5715 5713 5711 5709 5708 5706 5704 5702 5701 5700 5698 5697 5695 5692 5690 5687 5685 5683 5681 5680 5678 5677 5675 5673 5672 5670 5668 5666 5664 5662 5659 5656 5653
5717 5719 5719 5718 5719 5717 5716 5714 5714 5712 5710 5707 5706 5705 5703 5701 5700 5698 5697 5696 5694 5693 5691 5688 5686 5683 5681 5679 5677 5675 5674 5673 5671 5669 5668 5666 5664 5662 5660 5658 5655 5653 5650
5715 5715 5715 5714 5714 5713 5712 5710 5709 5707 5704 5702 5701 5700 5698 5696 5695 5694 5692 5691 5690 5688 5686 5683 5680 5678 5676 5674 5673 5671 5670 5668 5667 5666 5664 5662 5660 5658 5656 5654 5652 5649 5646
5711 5711 5710 5710 5709 5707 5706 5705 5704 5702 5700 5698 5697 5695 5694 5692 5690 5689 5688 5688 5686 5684 5681 5678 5675 5672 5671 5669 5668 5667 5666 5664 5663 5662 5660 5658 5656 5654 5652 5650 5647 5645 5642
5704 5705 5705 5704 5704 5702 5701 5700 5698 5697 5695 5694 5692 5691 5690 5688 5686 5685 5684 5683 5681 5679 5676 5674 5671 5668 5666 5664 5663 5662 5660 5659 5658 5657 5656 5654 5652 5650 5648 5646 5643 5641 5638
5696 5698 5698 5698 5697 5696 5694 5691 5690 5689 5689 5688 5688 5687 5686 5684 5682 5680 5679 5678 5676 5674 5671 5669 5667 5664 5662 5659 5658 5657 5655 5655 5654 5653 5652 5650 5648 5647 5644 5642 5639 5636 5633
5687 5688 5689 5689 5689 5687 5685 5683 5682 5682 5683 5683 5683 5683 5681 5680 5678 5676 5675 5673 5671 5670 5669 5666 5662 5658 5655 5652 5648 5647 5647 5648 5648 5649 5647 5645 5644 5642 5640 5638 5635 5632 5629
5677 5679 5681 5681 5682 5681 5681 5680 5680 5679 5678 5678 5678 5678 5677 5675 5674 5672 5670 5668 5667 5665 5663 5660 5657 5654 5651 5647 5643 5638 5638 5640 5644 5645 5643 5641 5640 5638 5636 5634 5631 5628 5625
5667 5670 5673 5673 5674 5674 5673 5672 5670 5668 5667 5668 5669 5671 5672 5671 5669 5668 5666 5664 5662 5660 5658 5656 5653 5650 5647 5643 5641 5637 5633 5637 5637 5638 5639 5639 5636 5634 5632 5630 5627 5624 5621
5658 5661 5663 5665 5665 5666 5665 5663 5662 5661 5662 5666 5667 5667 5666 5665 5664 5663 5661 5659 5657 5655 5654 5652 5649 5646 5642 5639 5635 5635 5635 5634 5630 5631 5631 5632 5631 5629 5627 5625 5623 5620 5616
5650 5651 5653 5654 5656 5656 5656 5656 5655 5656 5658 5660 5659 5659 5659 5659 5659 5658 5656 5654 5652 5650 5649 5646 5643 5640 5638 5636 5633 5630 5627 5626 5625 5623 5623 5623 5622 5624 5623 5620 5618 5615 5612
5639 5641 5643 5644 5645 5647 5646 5647 5648 5649 5650 5650 5650 5651 5652 5652 5652 5651 5650 5649 5647 5645 5643 5641 5638 5635 5634 5631 5629 5626 5624 5621 5621 5617 5616 5615 5614 5616 5615 5614 5612 5610 5607